Location: Conflandey
(47.7287°N, 6.0456°E)
Time: 21:02:32
(UTC+00:00)

Cosmos 1844 Rocket - Pass Details

Date: 24 October 2021
Orbit: 826 x 843 km, 71.0° (Epoch: 04 December)

Event Time Altitude Azimuth Distance (km) Brightness Sun altitude
Rises 19:04:13 0° 327° (NNW) 3,375 6.5 -26.3°
Reaches altitude 10° 19:06:45 10° 321° (NW) 2,437 5.7 -26.7°
Maximum altitude 19:11:58 42° 252° (WSW) 1,160 3.7 -27.6°
Enters shadow 19:15:21 20° 192° (SSW) 1,805 4.4 -28.1°
